map of VOZ home
VOZ - Airport
Location
City:  Voronezh, Voronezhskaya, Russian Federation (Russia)
Name:Chertovitskoye Airport
ICAO:UUOO
IATA:VOZ

Details
Type:Airport (Aerodrome, Airfield)
Use:Public/Civil, International (customs port of entry)
Latitude:5148'54"N (51.815000)
Longitude:3913'47"E (39.229722)
Elevation:515 ft (157 m)
Variation:9.95E (WMM2015v2 magnetic declination)
0.13 annual change
Runways:1
Longest:7546 × 148 ft (2300 × 45 m), paved

Time
Time Zone:UTC+3 (DST+4)

Weather
METAR:UUOO 041400Z 17003MPS 5000 BR OVC003 01/00 Q1025 R30/290050 TEMPO OVC002 RMK QFE755

Related Locations
Nearby:
Farthest:CHT: 10708 mi / 17232 km
Waitangi [Tuuta], CIT, NZ

Find:

   beyond  
but within

Other Information
Maps:
NOTAMs:
Links:
Sources:

  
  • flag of Russian Federation (Russia)
  • flag of Voronezhskaya
  

Airport Diagram

Airport diagram for VOZ

Airport diagram PDF from AIP of the Russian Federation

Sectional Chart

Flight Planning
at skyvector.com

Satellite Image

Google Maps Satellite view

Yandex Maps Satellite view


 

Copyright © 2004-2019 Karl L. Swartz. All rights reserved.
The Great Circle Mapper name and logo are trademarks of the Great Circle Mapper.
All other trademarks mentioned herein belong to their respective owners.
Please see credits for attibutions and further copyright information.

  Follow gcmap on Facebook Follow gcmap on Twitter GCmap on LinkedIn

hCard Microformat

Geo Microformat